Theta_e
306 306 305 305 305 303 304 305 304 303 297 297 296 296 295 295 295 297 301 304 304 304 296 296 302 307 309 308 310 316 322 324 323 320 318 307 309 313 315 318 318 325 333 332 331
304 305 305 304 304 298 296 297 298 298 297 297 298 295 296 297 294 295 299 302 302 299 296 296 296 302 304 306 306 315 320 315 308 306 308 304 308 308 312 315 319 319 318 320 326
296 299 300 298 299 297 296 296 296 296 295 296 295 297 298 298 293 294 298 297 298 298 296 296 298 303 300 303 302 306 311 301 303 302 301 303 304 309 313 312 312 310 311 314 325
295 295 295 295 295 296 296 296 296 295 295 295 296 295 295 296 293 295 296 296 298 298 298 296 294 297 297 298 298 306 299 299 301 300 297 301 300 298 307 307 298 299 300 306 314
296 295 294 294 295 295 295 296 296 296 296 295 295 296 296 291 294 295 296 297 298 298 297 295 295 294 294 296 299 297 299 299 299 296 295 297 295 296 302 298 297 297 298 300 302
297 296 294 294 294 295 295 295 296 296 296 297 295 295 293 291 295 295 296 297 298 298 298 296 296 294 295 296 297 298 299 295 296 295 296 296 295 295 303 296 296 296 296 298 299
297 297 295 295 294 295 295 295 295 295 295 296 296 294 293 294 295 295 295 296 297 298 297 297 296 295 295 296 295 297 295 293 293 294 295 296 295 297 295 295 295 295 295 296 298
297 297 296 295 295 294 294 295 295 295 295 295 295 295 293 295 295 295 295 296 296 297 298 297 296 293 292 292 292 291 291 292 292 294 295 294 293 295 294 294 294 294 294 295 297
298 298 297 296 295 294 295 294 295 295 295 295 295 294 294 295 295 295 295 295 295 295 295 296 294 292 292 289 290 290 291 293 293 293 296 295 295 295 295 294 294 294 294 295 296
298 298 297 297 295 295 295 294 295 295 295 295 295 294 292 293 295 295 295 295 294 293 293 292 291 292 291 288 291 292 292 292 292 292 295 295 295 294 294 294 294 294 293 295 296
298 298 298 297 295 294 295 295 293 292 295 293 295 292 293 294 295 294 295 294 293 291 292 291 293 294 293 293 292 292 293 292 291 294 295 295 294 294 293 293 293 293 294 298 299
299 299 298 297 296 295 296 295 295 294 292 293 294 294 294 294 292 293 295 293 292 292 291 290 292 293 293 295 295 295 294 292 293 294 295 294 293 292 292 293 293 293 295 297 296
300 300 299 298 295 293 295 296 296 296 291 292 293 293 293 294 294 292 294 293 292 293 291 290 292 293 295 295 296 295 294 294 294 294 292 292 291 291 293 293 293 294 295 296 295
301 301 300 297 295 293 293 294 295 295 288 293 293 292 293 293 292 293 293 294 292 293 293 291 292 293 295 296 296 296 295 294 293 295 293 292 293 293 293 292 293 294 293 294 294
302 301 300 297 295 294 293 293 294 295 295 292 293 293 292 292 290 292 293 292 294 294 291 292 293 293 295 296 296 295 294 293 294 294 294 292 293 293 291 293 293 294 294 293 294
302 301 300 298 294 293 294 295 294 296 293 289 290 292 293 292 291 291 291 293 293 293 291 292 291 294 295 295 296 293 293 291 290 291 290 293 292 292 292 293 292 293 293 294 292
302 301 300 297 295 294 295 294 298 297 289 289 287 292 293 293 292 291 292 293 292 290 288 289 292 291 292 292 292 293 290 292 294 292 293 291 293 293 293 293 292 292 292 293 291
302 301 299 297 295 294 293 294 295 288 284 290 292 290 292 292 291 291 291 289 292 288 285 288 293 292 292 292 291 294 291 291 290 293 292 293 294 295 293 293 292 290 291 292 291
302 300 299 297 295 294 290 289 293 288 290 291 291 287 282 288 289 290 287 287 292 287 288 285 291 290 292 291 291 292 290 291 289 289 291 292 291 291 293 292 291 290 290 290 290
301 299 298 297 295 291 288 293 287 291 290 290 292 289 284 282 288 287 285 286 292 291 284 286 288 291 292 291 291 292 291 290 287 287 290 292 292 293 293 293 291 290 290 290 290
300 291 295 296 293 287 288 284 284 289 291 291 291 287 288 287 284 282 284 284 289 291 287 281 286 292 289 288 292 292 291 287 286 290 292 294 293 290 292 292 290 290 289 290 291
296 291 293 294 289 276 282 282 289 291 291 292 290 291 290 288 286 287 286 287 289 291 293 288 284 290 290 289 289 291 291 290 289 289 291 294 293 292 291 290 289 289 292 291 292
292 287 292 292 290 284 280 288 290 291 292 291 291 292 291 290 288 290 290 290 289 292 291 290 284 285 292 288 287 286 291 292 290 290 289 290 292 290 289 289 292 291 292 292 292
289 295 291 287 282 286 283 287 289 290 291 291 291 291 292 292 290 285 291 292 290 293 295 293 286 289 292 291 283 284 284 292 288 287 291 292 293 294 293 292 291 292 292 292 291
292 292 290 294 291 283 287 290 290 290 288 290 291 291 289 287 291 291 291 291 291 293 294 288 286 286 289 290 287 291 290 288 291 292 291 294 292 293 293 292 292 292 291 290 291
296 290 285 284 286 288 287 289 292 291 290 290 290 291 289 289 291 292 291 291 291 291 293 289 287 284 286 290 291 290 291 291 292 291 291 292 292 292 292 292 291 290 290 291 291
296 291 294 292 287 289 289 292 292 291 290 291 291 291 291 291 290 289 289 289 290 292 293 289 286 281 284 287 287 290 290 291 290 290 291 291 292 291 291 291 291 291 290 290 290
Wind_Speed
22 22 22 22 20 19 21 20 20 22 21 19 5 2 8 16 33 44 31 23 24 26 23 21 10 7 4 4 6 2 3 2 1 4 6 8 9 6 9 6 7 3 3 5 18
21 22 21 21 18 18 20 26 24 25 25 24 16 3 1 5 13 35 29 29 25 26 20 21 8 13 5 5 4 5 3 4 3 3 4 11 4 11 6 9 6 13 6 17 20
20 20 20 19 19 16 15 18 21 24 27 22 20 9 3 3 5 10 32 29 26 26 14 13 2 4 7 5 6 5 3 4 4 7 8 6 6 7 6 4 12 24 28 27 19
18 18 19 17 16 17 15 16 18 20 24 30 19 14 15 1 5 20 28 26 22 27 25 20 8 5 5 5 4 5 4 3 4 6 8 6 7 14 4 7 11 15 21 24 20
18 18 16 16 16 14 15 13 12 14 19 21 33 14 13 9 5 25 20 20 16 25 31 6 11 4 6 3 3 4 3 4 4 6 7 4 14 7 3 9 15 20 19 18 19
17 17 14 16 16 13 12 12 12 13 13 15 17 31 12 10 14 21 15 18 20 21 21 19 4 4 7 3 3 2 3 5 2 8 7 13 9 1 4 14 23 20 18 17 17
14 15 16 15 13 9 12 15 11 16 16 12 12 7 17 7 19 22 15 16 16 16 9 19 9 5 2 2 4 1 2 4 5 5 5 12 7 3 7 17 20 22 18 19 19
14 16 16 13 13 12 9 7 7 11 11 12 10 6 5 10 21 26 21 12 13 18 12 15 19 7 6 4 7 5 5 5 4 9 5 6 9 8 14 19 23 19 23 19 21
11 12 15 17 15 16 9 2 4 15 4 6 3 4 2 7 17 24 18 10 7 8 18 13 9 6 8 4 4 7 1 2 9 4 5 7 12 9 18 14 19 19 18 19 19
14 16 18 19 17 17 8 2 2 13 4 3 8 5 7 6 14 19 12 11 7 4 5 11 7 4 5 5 3 3 5 5 5 6 7 12 15 22 16 13 14 16 15 17 18
13 14 16 17 15 17 6 2 5 4 15 5 0 2 2 13 4 18 17 5 5 10 6 6 9 5 5 2 4 3 3 4 4 3 13 7 18 21 15 9 12 13 12 14 17
11 13 14 15 12 18 7 8 3 1 3 3 2 3 2 6 5 16 16 6 7 5 5 6 4 5 6 2 2 1 1 3 9 2 7 7 20 14 7 6 6 10 9 11 15
10 12 13 14 7 10 19 9 4 1 4 3 2 3 4 7 2 7 8 3 5 6 6 6 2 6 2 2 6 2 3 5 5 12 5 10 7 6 6 4 8 9 7 10 8
8 10 12 12 1 5 6 5 3 3 5 5 4 4 3 2 2 4 6 2 5 3 3 2 3 4 3 3 4 4 3 6 9 7 3 7 5 6 6 10 5 10 11 11 8
7 9 11 11 2 4 2 2 2 1 4 1 3 3 2 4 4 6 5 5 2 1 4 2 3 4 3 3 3 6 8 6 2 2 3 4 1 9 4 5 8 12 14 12 8
5 6 8 4 6 4 3 2 2 6 5 3 3 3 1 5 5 6 5 8 1 2 3 1 2 1 3 3 2 10 3 1 3 2 3 3 2 6 4 5 6 8 14 10 9
3 5 6 4 2 3 1 1 5 4 4 5 1 4 2 5 4 7 5 6 4 5 7 6 1 3 2 4 2 6 5 4 7 6 4 5 5 11 10 11 6 7 12 10 9
3 3 4 4 3 2 4 5 4 2 6 2 2 3 3 6 4 6 2 3 3 3 4 4 6 2 4 2 2 4 2 4 4 3 6 6 7 7 6 10 8 6 7 8 12
4 0 1 1 1 1 5 4 8 7 6 8 2 5 5 3 1 3 3 3 2 2 5 3 5 2 1 2 2 2 4 2 3 2 2 4 6 11 8 8 6 8 6 9 13
4 1 2 1 1 2 5 6 3 2 5 2 6 3 4 3 2 3 1 3 2 1 1 4 4 1 1 1 3 1 5 2 3 2 5 6 7 7 9 10 10 10 11 13 14
4 2 3 6 4 5 4 7 4 4 2 4 6 4 4 4 4 2 3 4 4 3 4 4 3 3 3 2 6 1 1 5 3 3 3 4 7 9 14 12 9 12 14 15 16
5 1 2 9 3 2 3 6 4 4 2 1 2 2 6 6 4 2 5 6 7 6 6 5 4 4 7 2 2 2 5 5 4 4 4 2 11 5 8 6 5 11 19 18 17
3 2 2 2 3 3 2 3 3 4 5 3 4 3 2 6 1 5 5 3 8 7 6 7 1 4 6 4 4 3 4 4 3 2 8 4 8 3 3 6 16 20 18 19 19
3 2 1 2 0 5 5 4 4 3 3 4 4 3 3 4 2 4 4 4 8 6 7 8 3 6 6 6 4 4 4 9 6 4 4 16 24 30 25 18 16 21 22 20 20
3 5 3 5 5 4 4 7 5 6 2 5 1 6 8 4 4 6 5 3 5 9 5 5 6 5 10 13 7 21 15 11 19 22 9 17 13 27 25 21 21 20 21 19 21
6 4 0 3 2 9 7 9 12 5 9 6 6 12 8 8 10 10 8 5 6 3 7 3 3 2 5 11 11 20 22 18 25 23 23 29 32 33 30 23 18 18 17 20 19
14 6 4 7 5 6 7 8 15 10 9 6 14 6 11 18 7 0 3 3 6 9 8 6 3 2 6 2 7 12 10 12 7 7 9 12 17 12 12 12 12 15 19 18 17
Wind_Direction
43 38 38 38 35 45 45 41 40 38 38 20 8 133 69 50 42 43 40 356 344 341 348 356 28 39 78 57 38 129 83 181 12 15 314 355 349 326 308 322 318 281 249 289 329
42 38 33 39 36 50 53 50 46 44 39 33 35 82 302 331 27 37 5 359 355 353 354 4 360 358 52 30 23 56 103 35 59 323 314 317 301 316 337 332 302 324 336 330 323
44 37 35 41 41 44 45 40 36 36 37 38 39 28 354 352 58 351 357 2 7 7 10 6 19 57 57 25 2 2 74 328 8 347 324 299 323 342 319 318 339 341 329 324 306
44 42 39 42 43 44 43 40 40 38 39 41 32 38 48 55 66 343 355 3 14 22 37 29 33 55 69 56 333 96 13 10 353 330 351 2 355 325 293 341 335 331 326 333 334
38 36 36 39 42 41 38 38 32 32 31 32 37 25 45 34 31 351 2 10 20 32 31 30 44 71 83 87 59 71 328 338 323 352 5 345 330 261 257 311 320 327 329 329 327
33 27 32 34 36 38 36 30 25 14 12 17 25 44 68 66 358 6 11 24 27 29 31 39 41 56 94 81 88 224 226 315 355 8 39 352 296 337 256 342 333 329 321 314 311
27 23 26 28 31 44 42 23 31 41 30 19 15 47 58 71 18 17 29 30 29 38 28 27 28 82 94 52 338 340 35 20 5 12 42 325 317 308 308 327 320 316 315 308 303
19 18 16 13 15 1 334 10 46 355 332 9 18 59 83 12 18 22 23 33 49 43 34 21 32 80 45 319 11 31 51 10 5 357 14 21 272 280 313 324 316 314 315 316 310
12 10 10 8 9 359 348 248 297 346 335 348 7 82 58 356 3 10 9 1 354 35 46 41 54 59 12 43 31 6 314 320 316 23 3 23 280 301 311 313 309 316 312 313 313
4 5 5 4 5 2 4 30 331 16 11 61 40 49 20 316 327 355 6 20 34 348 30 33 52 65 7 43 45 317 350 302 248 324 345 307 282 311 311 319 309 308 316 326 329
2 2 2 3 4 2 359 2 21 356 33 72 358 122 310 330 11 1 356 328 37 55 46 19 55 19 306 21 169 183 198 272 260 298 340 306 301 301 310 319 323 316 323 353 356
355 356 358 359 5 13 42 70 83 154 58 21 23 29 11 349 6 347 5 55 36 51 349 43 44 284 266 288 182 168 274 296 295 270 344 331 301 295 304 298 276 306 316 346 359
350 350 351 351 1 38 67 83 89 82 98 6 26 15 344 9 61 316 14 55 48 52 22 91 281 311 277 336 28 54 69 340 287 324 6 330 297 314 301 317 320 329 317 330 355
351 348 353 348 59 36 50 49 63 63 75 301 359 8 338 347 60 333 14 94 41 91 69 90 323 312 328 48 22 3 158 305 304 9 314 18 293 303 290 314 315 319 322 320 329
344 350 359 24 90 84 90 62 80 18 24 205 311 322 342 76 306 353 6 24 76 79 95 254 339 328 347 352 357 261 305 289 256 115 36 355 302 271 294 308 317 324 316 313 320
337 348 354 355 42 74 63 94 56 43 258 308 289 328 3 16 12 311 17 47 34 92 36 305 314 274 300 325 292 273 330 94 86 125 36 186 106 276 271 246 292 314 312 305 318
316 352 13 13 28 25 5 131 33 127 351 288 275 23 69 6 18 24 28 14 25 27 15 337 287 311 319 311 297 354 9 352 2 8 249 173 328 252 276 278 232 292 296 297 300
257 328 38 80 55 2 307 48 106 212 221 331 32 45 72 357 31 354 64 67 23 59 83 62 329 29 354 20 284 356 51 127 217 284 287 310 224 254 236 282 281 268 273 281 295
209 325 44 44 69 19 62 59 205 197 163 150 74 59 321 354 64 29 43 176 202 170 121 79 285 321 360 326 12 326 48 194 118 99 321 259 278 284 287 285 280 291 296 291 304
195 184 160 168 134 42 76 248 211 236 133 165 159 146 191 263 43 57 14 220 179 105 88 217 331 168 294 280 20 23 167 63 26 11 299 281 286 246 284 283 302 307 305 304 303
183 32 174 159 116 49 167 223 250 237 261 161 175 143 182 183 155 209 225 278 213 147 110 136 104 270 48 187 174 141 342 45 115 150 211 294 253 209 247 264 283 302 299 298 300
152 332 176 161 80 106 175 200 186 183 232 236 114 109 170 161 146 204 219 218 183 160 160 199 143 260 236 222 320 290 203 165 130 247 234 260 267 227 229 259 278 280 303 301 299
169 168 163 222 174 218 289 256 242 164 200 164 177 175 173 169 139 189 201 207 170 166 166 184 270 336 339 0 357 215 197 199 101 120 206 165 260 312 301 289 301 303 303 305 304
114 157 283 86 244 142 142 225 218 206 180 151 153 92 127 177 222 190 233 213 182 193 180 153 170 197 207 220 132 264 204 201 161 182 199 228 281 286 290 299 299 302 304 307 308
135 228 182 185 228 185 166 163 161 187 225 185 255 206 167 158 152 227 195 191 179 208 160 141 212 187 256 277 247 267 254 205 215 227 223 262 265 275 287 300 295 294 297 302 309
155 153 177 152 135 156 189 215 183 175 154 228 218 190 182 173 187 193 161 192 201 160 154 168 257 129 263 260 277 275 263 240 239 242 253 259 271 271 279 281 284 284 296 309 308
181 143 142 153 159 143 205 200 203 144 213 185 205 135 197 230 174 254 111 116 167 158 178 153 158 42 266 5 312 284 252 206 190 216 217 222 245 276 287 288 287 297 303 304 303